Regional Weather Roundup
Issued by NWS

Home | Current Version | Previous Version | Text Only | Print | Product List | Glossary Off
Versions: 1 2 3 4 5 6 7 8 9 10 11 12 13 14 15 16 17 18 19 20 21 22 23 24 25 26 27 28 29 30 31 32 33 34 35 36 37 38 39 40 41 42 43 44 45 46 47 48 49 50

000
ASUS45 KSLC 280910
RWRUT

UTAH REGIONAL WEATHER ROUNDUP
NATIONAL WEATHER SERVICE SALT LAKE CITY UT
300 AM MDT MON JUL 28 2014

UTZ001>011-023>025-281000-

NORTHERN UTAH

CITY           SKY/WX    TMP DP  RH WIND       PRES   REMARKS
HILL AFB       MOCLDY    76  41  27 N5        30.20S
LOGAN          CLEAR     64  47  53 CALM      30.16R
OGDEN          PTCLDY    76  42  29 SE3       30.17R
PROVO AIRPORT  MOCLDY    75  52  43 SE5       30.19R
SALT LAKE CITY CLOUDY    82  46  28 CALM      30.12F
VERNAL         MOCLDY    68  43  40 NW3       30.25R
WENDOVER       CLOUDY    82  45  26 W13       30.14S
HEBER CITY     MOCLDY    64  46  52 CALM      30.26S
WEST JORDAN    CLEAR     82  55  39 S10       30.16F

$$

UTZ012>022-026-027-281000-

SOUTHERN UTAH

CITY           SKY/WX    TMP DP  RH WIND       PRES   REMARKS
BRYCE CANYON   CLOUDY    59  55  87 CALM      30.48R
CEDAR CITY     LGT RAIN  68  54  60 S7        30.31S
MILFORD        CLOUDY    74  51  44 SW15      30.25R
MOAB/CYNLANDS  LGT RAIN  70  63  78 SW8       30.23S
PRICE          CLOUDY    72  48  42 SW3       30.35R
ST GEORGE      PTSUNNY   77  57  50 NE16      30.15S

$$

REGIONAL REPORTS     COLORADO/ARIZONA

CITY           SKY/WX    TMP DP  RH WIND       PRES   REMARKS
CRAIG, CO      PTCLDY    46  45  96 CALM      30.35R
GRAND JUNCTION CLOUDY    74  49  41 NE8       30.27S
RIFLE          CLOUDY    68  48  48 W3        30.32R
MONTROSE       MOCLDY    68  52  56 S3        30.36S
CORTEZ         CLOUDY    64  60  87 CALM      30.40R
PAGE, AZ       CLOUDY    76  56  49 CALM      30.24S
GRAND CANYON   CLOUDY    60  57  89 E5        30.37F
KINGMAN        CLOUDY    80  56  43 SE10      30.13S
FLAGSTAFF      CLOUDY    60  51  72 CALM      30.46S

$$

REGIONAL REPORTS    NEVADA/IDAHO/WYOMING

CITY           SKY/WX    TMP DP  RH WIND       PRES   REMARKS
LAS VEGAS, NV  CLOUDY    81  62  52 S7        30.00S
ELY            CLOUDY    64  50  60 E6        30.34S
ELKO           CLOUDY    77  44  30 S10G17    30.21F
POCATELLO, ID  CLEAR     61  43  51 N6        30.14S
BURLEY         MOCLDY    65  48  54 S3        30.10S
EVANSTON, WY   MOCLDY    66  23  19 E6        30.39R
ROCK SPRINGS   CLEAR     63  42  46 NE6       30.38S

$$


USA.gov is the U.S. government's official web portal to all federal, state and local government web resources and services.